User: anonymous
Location: Caltech
(34.1382°N, 118.1253°W)
Time: 03:38:11
(UTC-07:00)
Language:

Iridium 91 - Orbit

View from above orbital plane
View from above orbital plane
View from above satellite
View from above satellite

Ground track
Ground track

The orbit data is extracted from the following two-line orbital elements,

1 27372U 02005A   14205.42551955  .00000003  00000-0 -61429-5 0  4150
2 27372 086.3983 010.2309 0003656 106.6520 282.5431 14.34218020659870
Epoch (UTC): 24 July 2014 10:12:44
Eccentricity: 0.0003656
inclination: 86.3983°
perigee height: 775 km
apogee height: 780 km
right ascension of ascending node: 10.2309°
argument of perigee: 106.6520°
revolutions per day: 14.34218020
mean anomaly at epoch: 282.5431°
orbit number at epoch: 65987

The dashed part of the orbit path shows where the satellite is in the earth's shadow,  

DLR